Precipitable_Water
1.04 1.06 1.04 1.02 0.97 0.96 0.93 0.94 0.96 1.01 1.08 0.97 0.94 1.01 1.04 1.11 1.20 1.26 1.35 1.38 1.29 1.18 1.16 1.18 1.13 1.15 1.15 1.23 1.25 1.24 1.18 1.17 1.01 1.12 1.20 1.34 1.35 1.32 1.33 1.43 1.44 1.39 1.37
0.97 0.93 0.87 0.86 0.87 0.89 0.88 0.92 1.03 1.07 0.99 0.95 1.04 1.02 1.04 1.14 1.29 1.33 1.34 1.40 1.31 1.22 1.15 1.14 1.18 1.18 1.15 1.18 1.21 1.21 1.21 1.23 1.13 1.08 1.21 1.27 1.30 1.39 1.37 1.35 1.37 1.40 1.40
0.85 0.78 0.77 0.77 0.76 0.79 0.90 1.02 1.12 1.07 0.93 1.01 1.02 0.99 1.16 1.29 1.32 1.41 1.43 1.39 1.32 1.28 1.21 1.18 1.20 1.17 1.14 1.19 1.27 1.28 1.27 1.29 1.28 1.21 1.18 1.31 1.34 1.40 1.38 1.37 1.32 1.33 1.51
0.70 0.68 0.71 0.79 0.89 0.99 1.06 1.09 1.09 0.97 0.95 1.04 1.03 1.11 1.27 1.34 1.40 1.45 1.41 1.40 1.37 1.27 1.32 1.23 1.25 1.24 1.20 1.22 1.28 1.31 1.31 1.27 1.27 1.22 1.20 1.22 1.26 1.38 1.41 1.28 1.27 1.34 1.31
0.68 0.75 0.84 0.93 0.99 1.02 1.05 1.05 0.93 0.93 1.02 1.08 1.08 1.21 1.28 1.36 1.38 1.42 1.39 1.37 1.36 1.30 1.33 1.33 1.34 1.33 1.34 1.37 1.31 1.30 1.30 1.24 1.22 1.20 1.18 1.22 1.25 1.27 1.24 1.31 1.27 1.29 1.35
0.79 0.87 0.96 1.06 1.05 1.02 1.05 0.98 0.91 0.98 1.03 1.09 1.13 1.19 1.21 1.37 1.43 1.45 1.45 1.39 1.40 1.33 1.30 1.35 1.39 1.35 1.35 1.37 1.37 1.37 1.31 1.22 1.20 1.20 1.20 1.16 1.23 1.28 1.32 1.28 1.22 1.15 1.11
0.90 1.00 1.05 1.10 1.04 1.02 1.05 0.96 0.95 0.99 1.07 1.12 1.14 1.16 1.16 1.30 1.39 1.45 1.46 1.42 1.40 1.37 1.37 1.38 1.37 1.38 1.36 1.32 1.32 1.32 1.31 1.34 1.35 1.27 1.19 1.23 1.24 1.32 1.34 1.25 1.23 1.22 1.19
0.99 1.04 1.10 1.09 1.06 1.03 0.97 0.96 0.99 1.05 1.07 1.08 1.09 1.12 1.19 1.27 1.37 1.44 1.44 1.42 1.43 1.44 1.44 1.42 1.38 1.37 1.37 1.34 1.29 1.27 1.29 1.33 1.32 1.31 1.32 1.30 1.36 1.39 1.38 1.31 1.29 1.24 1.26
1.00 1.03 1.06 1.03 1.07 1.09 1.05 1.04 1.05 1.07 1.05 1.06 1.07 1.11 1.19 1.24 1.37 1.45 1.43 1.43 1.40 1.42 1.46 1.47 1.42 1.38 1.38 1.37 1.31 1.25 1.26 1.29 1.39 1.40 1.41 1.44 1.41 1.41 1.36 1.30 1.22 1.15 1.03
0.99 1.01 0.96 1.05 1.05 1.09 1.16 1.16 1.14 1.10 1.04 1.04 1.06 1.16 1.15 1.21 1.36 1.47 1.46 1.43 1.37 1.39 1.42 1.40 1.41 1.39 1.39 1.38 1.33 1.26 1.21 1.27 1.32 1.33 1.36 1.37 1.38 1.37 1.36 1.34 1.23 0.96 0.71
1.01 0.96 0.96 1.02 1.08 1.17 1.23 1.28 1.27 1.17 1.11 1.05 1.10 1.13 1.13 1.26 1.35 1.46 1.48 1.44 1.40 1.36 1.33 1.31 1.35 1.37 1.37 1.37 1.35 1.32 1.27 1.34 1.32 1.30 1.30 1.32 1.34 1.31 1.30 1.24 1.05 0.77 0.52
1.00 0.96 1.00 1.04 1.11 1.19 1.21 1.27 1.32 1.29 1.17 1.16 1.15 1.13 1.17 1.28 1.36 1.42 1.47 1.47 1.46 1.38 1.28 1.30 1.29 1.32 1.32 1.33 1.31 1.31 1.30 1.31 1.29 1.25 1.23 1.23 1.18 1.14 1.07 0.96 0.86 0.73 0.70
0.93 0.91 0.97 0.98 1.01 1.14 1.18 1.17 1.25 1.25 1.17 1.17 1.15 1.12 1.08 1.23 1.31 1.39 1.40 1.44 1.45 1.39 1.35 1.32 1.30 1.29 1.28 1.28 1.27 1.26 1.25 1.23 1.23 1.18 1.14 1.11 1.06 1.02 0.99 0.89 0.82 0.78 0.79
0.85 0.87 0.91 0.90 0.94 0.98 1.13 1.18 1.21 1.19 1.13 1.15 1.15 1.09 1.01 1.15 1.24 1.35 1.35 1.39 1.42 1.39 1.34 1.33 1.32 1.31 1.30 1.27 1.26 1.26 1.25 1.22 1.16 1.07 0.98 0.96 0.98 0.91 0.80 0.74 0.69 0.75 0.78
0.84 0.84 0.85 0.87 0.88 0.85 1.04 1.14 1.17 1.19 1.18 1.14 1.12 1.05 1.01 1.11 1.25 1.34 1.35 1.35 1.40 1.38 1.34 1.31 1.27 1.25 1.23 1.21 1.23 1.23 1.19 1.14 1.04 0.97 0.84 0.75 0.69 0.66 0.67 0.79 0.81 0.79 0.75
0.75 0.80 0.79 0.80 0.83 0.81 0.85 1.07 1.16 1.18 1.20 1.19 1.20 1.21 1.22 1.30 1.34 1.35 1.35 1.36 1.39 1.40 1.33 1.24 1.20 1.19 1.19 1.16 1.13 1.11 1.09 1.04 0.98 0.93 0.83 0.76 0.69 0.66 0.69 0.78 0.86 0.87 0.85
0.70 0.75 0.77 0.78 0.81 0.79 0.73 0.82 0.94 1.05 1.22 1.26 1.28 1.28 1.28 1.31 1.34 1.31 1.22 1.19 1.25 1.30 1.25 1.23 1.21 1.19 1.15 1.13 1.10 1.06 1.00 1.01 0.99 0.91 0.82 0.75 0.72 0.77 0.78 0.76 0.79 0.85 0.84
0.70 0.73 0.77 0.77 0.79 0.78 0.74 0.63 0.80 0.88 0.91 0.98 1.14 1.16 1.16 1.20 1.24 1.22 1.17 1.09 0.95 1.02 1.07 1.08 1.08 1.10 1.08 1.05 1.05 1.02 1.00 1.00 0.97 0.92 0.87 0.83 0.80 0.77 0.74 0.75 0.77 0.80 0.83
0.67 0.69 0.74 0.78 0.79 0.79 0.78 0.69 0.63 0.68 0.75 0.82 0.95 1.02 1.05 1.03 1.08 1.08 1.08 0.99 0.90 0.85 0.84 0.89 0.95 1.00 1.01 1.01 1.01 1.02 1.02 1.00 0.99 0.96 0.94 0.90 0.87 0.84 0.81 0.80 0.79 0.81 0.84
0.68 0.67 0.68 0.69 0.74 0.77 0.78 0.73 0.65 0.59 0.59 0.63 0.69 0.81 0.87 0.89 0.84 0.90 0.94 0.94 0.92 0.90 0.88 0.80 0.81 0.89 0.94 0.99 1.02 1.01 1.00 0.98 0.97 0.97 0.96 0.95 0.93 0.89 0.83 0.81 0.80 0.78 0.78
0.66 0.68 0.68 0.71 0.70 0.70 0.73 0.72 0.70 0.65 0.61 0.59 0.61 0.69 0.72 0.69 0.68 0.70 0.73 0.81 0.84 0.84 0.86 0.88 0.89 0.85 0.78 0.83 0.91 0.94 0.95 0.95 0.96 0.95 0.93 0.91 0.90 0.84 0.85 0.87 0.89 0.93 0.97
0.65 0.65 0.67 0.67 0.71 0.74 0.76 0.78 0.75 0.69 0.64 0.64 0.65 0.68 0.73 0.75 0.75 0.74 0.74 0.72 0.70 0.72 0.80 0.82 0.81 0.85 0.85 0.83 0.76 0.69 0.73 0.79 0.85 0.88 0.86 0.86 0.87 0.89 0.94 0.98 1.00 1.00 0.98
0.80 0.72 0.69 0.72 0.79 0.83 0.85 0.84 0.84 0.84 0.79 0.71 0.69 0.68 0.69 0.71 0.73 0.73 0.74 0.78 0.81 0.81 0.79 0.71 0.69 0.74 0.82 0.83 0.86 0.86 0.80 0.72 0.72 0.76 0.74 0.76 0.80 0.84 0.87 0.87 0.86 0.84 0.84
1.11 1.00 0.93 0.90 0.87 0.83 0.85 0.88 0.90 0.90 0.89 0.86 0.82 0.77 0.73 0.73 0.72 0.72 0.74 0.77 0.78 0.80 0.84 0.84 0.81 0.72 0.66 0.67 0.74 0.80 0.80 0.81 0.83 0.80 0.77 0.76 0.77 0.81 0.83 0.83 0.84 0.85 0.89
1.15 1.10 1.13 1.09 1.06 1.04 0.99 0.94 0.91 0.89 0.90 0.90 0.90 0.90 0.88 0.85 0.82 0.79 0.79 0.80 0.78 0.76 0.77 0.79 0.81 0.80 0.81 0.78 0.70 0.64 0.63 0.66 0.71 0.74 0.76 0.77 0.78 0.82 0.84 0.86 0.88 0.91 0.92
1.09 1.12 1.13 1.16 1.18 1.20 1.18 1.17 1.17 1.14 1.07 1.05 1.02 0.99 1.00 1.00 0.97 0.94 0.92 0.89 0.86 0.84 0.83 0.81 0.78 0.77 0.77 0.79 0.81 0.80 0.75 0.69 0.66 0.64 0.67 0.68 0.67 0.72 0.78 0.80 0.80 0.81 0.87
Wind_Speed
6 6 6 6 7 8 8 8 8 8 7 6 6 6 5 6 7 7 8 8 7 6 5 5 6 7 8 9 8 10 11 11 12 12 13 14 14 15 16 15 17 19 20
5 5 5 6 6 7 7 7 7 6 6 5 5 4 4 6 6 8 9 7 7 6 5 5 6 8 9 9 8 10 11 12 12 12 13 14 14 15 16 17 18 20 22
4 4 4 5 6 6 7 6 6 6 6 5 4 3 3 4 6 7 7 5 5 6 6 6 7 8 9 10 9 9 11 13 13 13 14 14 15 16 17 17 20 21 26
3 3 3 4 5 5 6 6 6 6 6 4 4 3 1 4 6 4 3 3 4 5 6 8 8 9 9 9 9 10 12 14 14 15 15 14 17 18 19 21 22 23 25
3 2 2 3 3 5 5 5 6 7 6 5 5 2 1 3 5 3 2 1 3 4 5 8 9 9 9 10 11 12 14 15 15 16 15 17 20 20 21 23 25 25 21
3 3 2 2 2 4 5 5 7 7 5 6 5 2 2 3 4 4 2 2 3 5 5 8 9 10 9 11 12 15 15 16 16 16 17 19 20 22 24 25 23 24 20
4 3 2 2 3 4 5 6 7 6 7 6 5 3 1 3 4 3 3 4 5 7 7 7 8 11 12 13 14 15 15 15 16 16 18 21 20 26 26 25 23 18 16
5 4 3 3 4 5 6 6 6 7 7 6 6 3 1 3 4 4 4 6 6 7 6 9 9 10 12 14 16 15 15 15 16 17 20 23 24 26 25 23 20 23 24
6 4 3 4 4 4 5 5 6 7 7 7 6 3 2 3 4 6 7 8 9 9 9 7 7 10 13 16 18 18 16 15 17 20 21 23 25 29 24 25 27 25 22
6 4 5 4 4 4 5 5 6 8 8 8 6 3 4 4 5 6 7 8 9 9 10 11 12 16 17 19 20 21 20 20 23 24 26 27 27 27 27 25 25 23 22
7 6 5 4 4 4 4 4 7 9 9 8 6 5 5 6 6 7 8 8 10 12 12 15 18 20 21 22 22 23 24 24 24 26 28 28 27 26 25 24 23 22 20
9 8 6 5 5 5 4 5 8 9 9 8 7 7 6 5 7 8 8 9 12 13 14 16 19 20 22 22 24 26 27 27 27 26 26 24 25 24 24 23 21 20 18
10 9 6 6 5 5 5 5 8 8 9 8 8 7 6 6 7 8 9 11 13 14 15 17 19 20 21 22 23 23 23 23 22 23 23 24 24 22 21 20 18 18 15
10 9 7 6 5 5 5 6 7 7 8 9 9 8 8 7 7 8 9 10 11 14 15 17 19 18 18 20 20 19 19 20 21 22 22 21 21 20 18 17 16 15 13
10 9 8 6 5 5 6 7 8 8 9 10 9 8 8 7 7 9 10 11 13 15 16 17 17 17 17 18 17 18 19 20 20 20 19 18 18 18 16 15 14 12 11
10 10 9 7 6 6 7 8 8 8 8 9 8 8 7 7 10 11 11 13 14 16 15 16 16 17 16 16 17 17 18 18 18 18 17 17 17 16 15 13 12 11 10
11 11 10 9 8 8 8 9 9 9 10 10 9 9 9 10 12 13 14 14 14 14 14 14 15 16 16 16 16 16 17 17 17 16 16 15 15 14 13 12 12 11 11
12 12 12 10 10 9 8 9 9 10 10 10 10 10 11 12 13 13 14 14 13 12 13 13 14 15 16 16 15 15 15 16 16 16 16 15 15 14 13 13 13 13 13
12 12 12 11 11 10 9 8 8 9 9 9 10 10 10 10 11 11 12 11 11 11 11 11 12 13 13 15 15 15 15 15 16 16 16 16 16 15 15 15 15 14 14
14 13 12 12 11 11 10 9 8 8 8 8 9 9 9 9 9 9 10 9 10 10 10 10 11 11 12 13 14 15 15 15 16 16 17 17 17 17 17 17 17 17 17
14 14 14 13 12 11 11 10 9 9 8 8 8 9 9 8 8 8 8 8 9 9 10 10 11 12 13 14 14 15 16 16 16 17 17 17 17 18 18 18 19 19 20
14 15 15 14 13 13 12 12 11 10 10 10 10 10 10 10 9 10 9 9 9 10 10 11 12 13 14 15 16 17 18 18 19 19 20 20 20 20 20 21 21 22 23
12 13 14 15 15 14 14 14 14 14 13 12 11 12 12 13 13 13 14 14 14 14 14 14 15 15 16 17 18 19 19 20 21 21 22 22 23 23 23 24 24 25 25
12 11 11 11 13 14 15 15 15 16 16 16 16 16 16 16 16 16 17 17 17 18 18 18 19 19 20 20 21 22 23 23 24 24 25 26 26 27 27 27 27 28 28
13 12 13 13 12 12 12 13 15 15 16 17 17 17 17 18 19 19 19 20 20 21 22 22 23 23 24 25 25 26 27 27 28 28 28 29 30 30 30 30 30 30 31
16 15 15 14 14 15 15 14 13 13 13 14 16 17 18 19 19 20 20 21 22 23 24 24 25 27 27 28 29 30 30 30 30 31 32 32 32 33 33 33 34 33 33
Wind_Direction
201 209 215 224 226 230 234 240 242 246 242 246 244 248 245 255 270 277 283 285 273 263 246 222 207 196 191 186 195 195 193 188 185 185 185 183 184 186 189 188 185 182 179
197 207 214 220 226 232 236 232 231 226 225 224 235 233 257 272 279 286 284 279 254 238 226 214 203 195 194 193 182 181 187 185 182 179 177 178 179 179 179 177 174 173 172
190 202 223 234 234 227 219 214 214 216 216 220 219 230 254 292 305 298 289 263 239 228 217 204 187 180 179 178 182 182 182 182 179 179 176 175 172 172 169 168 168 165 159
195 209 223 213 206 208 210 214 210 206 198 211 198 202 288 329 331 333 317 267 225 208 205 199 191 182 179 180 175 173 169 166 166 166 169 170 172 166 161 160 158 160 165
193 193 189 194 208 211 210 213 207 191 193 189 177 175 18 5 9 4 18 35 196 189 194 189 184 188 183 184 178 172 162 160 159 159 159 159 159 160 159 153 150 160 162
179 188 189 190 207 201 187 186 177 177 182 175 171 157 52 24 12 12 28 69 111 162 151 167 171 169 170 163 163 159 163 160 157 161 160 161 157 157 153 156 155 155 156
176 173 170 182 166 166 173 173 175 178 173 171 170 159 43 6 12 36 74 96 111 119 139 147 151 160 159 156 153 156 158 160 161 161 163 161 158 157 157 155 155 161 162
174 162 157 160 157 160 156 168 178 179 176 171 167 155 56 42 48 68 85 113 113 118 116 145 147 160 168 167 160 155 155 159 162 159 154 155 155 157 156 154 156 150 145
171 166 163 161 166 166 172 176 183 180 175 169 164 149 88 73 83 89 94 108 113 110 109 119 139 148 152 162 164 157 148 148 153 154 153 155 152 151 153 149 145 146 146
166 159 149 148 152 158 167 176 178 176 169 167 162 142 123 106 100 101 98 114 120 113 104 100 117 133 134 140 145 150 146 138 138 140 143 145 148 148 147 149 148 146 145
163 152 141 136 136 148 155 168 168 168 167 165 159 144 130 119 111 111 105 113 123 123 113 110 113 120 123 126 133 138 139 138 138 139 142 141 143 146 146 148 149 150 148
163 154 138 120 121 128 134 141 160 165 166 166 162 149 142 131 125 121 111 116 125 127 123 121 122 122 124 125 126 130 132 134 137 138 142 145 147 147 148 150 151 152 149
164 157 146 128 114 120 125 137 151 161 167 168 164 158 148 139 138 133 124 121 127 132 132 132 132 127 127 129 132 134 137 140 143 145 146 147 150 150 151 153 155 159 161
167 165 156 138 120 113 118 130 147 155 162 165 162 158 151 144 146 145 142 139 137 139 141 142 141 137 135 136 139 142 145 146 148 149 149 151 155 157 158 161 163 168 173
168 165 162 149 131 120 115 126 128 136 144 153 157 155 156 154 154 151 147 146 145 145 141 146 148 148 145 148 148 149 150 151 153 154 155 158 162 164 166 167 170 176 184
168 167 163 154 141 124 126 126 121 123 135 143 149 151 152 146 146 146 144 144 144 147 147 150 155 157 156 158 158 158 158 160 162 163 165 167 169 172 176 181 187 192 200
174 170 164 156 147 131 121 131 130 118 119 122 131 136 137 138 140 140 141 141 144 150 155 158 161 165 165 164 167 170 172 173 174 175 178 180 182 186 191 199 206 211 218
178 176 173 168 160 149 137 132 134 130 126 124 124 126 128 132 136 140 142 142 143 145 150 157 163 168 174 176 177 180 182 186 188 190 191 193 197 202 208 215 219 224 231
184 181 180 178 174 167 158 148 144 141 135 132 137 134 134 136 142 147 153 156 159 160 161 164 168 175 181 187 189 192 193 195 197 200 205 210 215 220 224 228 231 237 244
193 191 188 185 184 184 182 177 170 165 157 151 151 150 148 148 154 164 171 174 177 181 182 184 187 189 190 192 196 200 201 203 207 212 217 222 226 230 233 235 240 247 253
199 199 199 199 197 196 197 197 195 191 189 187 182 180 178 173 171 174 179 186 192 198 201 203 204 206 206 207 209 211 213 216 218 222 225 229 232 235 238 242 247 253 259
206 208 207 207 207 209 210 211 209 209 208 209 209 208 207 210 211 212 213 214 217 219 220 220 221 221 221 221 223 224 225 227 230 233 235 237 238 241 245 249 255 261 266
204 208 211 213 216 218 220 223 225 225 226 226 225 224 226 229 231 233 234 236 237 237 237 236 235 235 235 235 235 235 236 238 239 240 241 243 245 248 252 256 260 265 268
208 207 209 214 220 224 227 228 230 231 233 236 238 240 240 241 242 244 245 246 246 246 245 245 245 244 244 244 243 243 244 246 247 248 248 249 251 253 256 260 263 266 269
222 222 221 225 227 228 231 234 237 238 239 241 243 245 247 248 249 250 252 252 252 252 251 251 252 251 251 250 250 250 250 251 252 252 253 253 254 256 258 261 264 268 269
231 231 232 234 235 237 237 238 239 240 242 246 249 251 252 253 253 255 255 256 256 256 256 257 256 256 256 255 255 254 254 254 255 255 255 256 257 258 260 263 265 268 271